Weather History for Moose Lake, MN

Change the Weather History Date:

Saturday, November 30, 2013

  Actual Average Record
Temperature  
Mean Temperature 28 °F -  
Max Temperature 35 °F 30 °F 50 °F (1962)
Min Temperature 21 °F 11 °F -30 °F (1976)
Degree Days  
Heating Degree Days 37    
Moisture  
Dew Point 22 °F    
Average Humidity 74    
Maximum Humidity 93    
Minimum Humidity 60    
Precipitation  
Precipitation 0.00 in - - ()
Sea Level Pressure  
Sea Level Pressure 30.04 in    
Wind  
Wind Speed 5 mph (NNW)    
Max Wind Speed 10 mph    
Max Gust Speed -    
Visibility 10 miles    
Events      
Averages and records for this station are not official NWS values.
T = Trace of Precipitation, MM = Missing Value Source: NWS Daily Summary

Daily Weather History Graph

Daily Weather History Graph

Search for Another Location

Airport:

Trip Planner

Search our weather history database for the weather conditions in past years. The results will help you decide how hot, cold, wet, or windy it might be!

Date:

Astronomy

Nov. 30, 2013 Rise Set
Actual Time 7:33 AM CST 4:26 PM CST
Civil Twilight 6:59 AM CST 5:00 PM CST
Nautical Twilight 6:21 AM CST 5:38 PM CST
Astronomical Twilight 5:45 AM CST 6:14 PM CST
Moon 4:36 AM CST 2:57 PM CST
Length of Visible Light 10h 01m
Length of Day
8h 53m
Waning Crescent, 7% of the Moon is Illuminated
Nov 30
Waning Crescent
Dec 2
New
Dec 9
First Quarter
Dec 17
Full
Dec 25
Last Quarter

Hourly Weather History & Observations

Time (CST) Temp. Windchill Dew Point Humidity Pressure Visibility Wind Dir Wind Speed Gust Speed Precip Events Conditions
12:07 AM 28.4 °F 19.1 °F 21.2 °F 74% 30.07 in 10.0 mi South 10.4 mph - N/A   Overcast
12:27 AM 28.4 °F 19.7 °F 21.2 °F 74% 30.06 in 10.0 mi South 9.2 mph - N/A   Scattered Clouds
12:47 AM 28.4 °F 21.2 °F 19.4 °F 69% 30.05 in 10.0 mi South 6.9 mph - N/A   Clear
1:07 AM 28.4 °F 20.4 °F 19.4 °F 69% 30.04 in 10.0 mi South 8.1 mph - N/A   Clear
1:27 AM 28.4 °F 23.3 °F 21.2 °F 74% 30.03 in 10.0 mi South 4.6 mph - N/A   Clear
1:47 AM 28.4 °F 22.2 °F 19.4 °F 69% 30.03 in 10.0 mi South 5.8 mph - N/A   Clear
2:07 AM 26.6 °F 21.2 °F 19.4 °F 74% 30.03 in 10.0 mi South 4.6 mph - N/A   Clear
2:27 AM 26.6 °F 21.2 °F 19.4 °F 74% 30.03 in 10.0 mi South 4.6 mph - N/A   Clear
2:47 AM 26.6 °F - 19.4 °F 74% 30.03 in 10.0 mi Calm Calm - N/A   Clear
3:07 AM 26.6 °F - 19.4 °F 74% 30.02 in 10.0 mi Calm Calm - N/A   Clear
3:27 AM 26.6 °F - 19.4 °F 74% 30.01 in 10.0 mi Calm Calm - N/A   Clear
3:47 AM 26.6 °F - 19.4 °F 74% 30.00 in 10.0 mi Calm Calm - N/A   Clear
4:07 AM 26.6 °F - 19.4 °F 74% 30.01 in 10.0 mi Calm Calm - N/A   Clear
4:27 AM 24.8 °F - 19.4 °F 80% 30.01 in 10.0 mi Calm Calm - N/A   Clear
4:47 AM 26.6 °F - 19.4 °F 74% 30.01 in 10.0 mi Calm Calm - N/A   Clear
5:07 AM 23.0 °F - 19.4 °F 86% 30.00 in 10.0 mi Calm Calm - N/A   Clear
5:27 AM 23.0 °F - 19.4 °F 86% 29.99 in 10.0 mi Calm Calm - N/A   Clear
5:47 AM 24.8 °F - 19.4 °F 80% 29.99 in 10.0 mi Calm Calm - N/A   Clear
6:07 AM 23.0 °F - 19.4 °F 86% 29.99 in 10.0 mi Calm Calm - N/A   Clear
6:27 AM 23.0 °F - 19.4 °F 86% 30.00 in 10.0 mi Calm Calm - N/A   Clear
6:47 AM 23.0 °F 18.4 °F 19.4 °F 86% 29.99 in 10.0 mi SSW 3.5 mph - N/A   Clear
7:07 AM 23.0 °F - 19.4 °F 86% 29.99 in 10.0 mi Calm Calm - N/A   Scattered Clouds
7:27 AM 21.2 °F - 19.4 °F 93% 29.99 in 7.0 mi Calm Calm - N/A   Mostly Cloudy
7:47 AM 21.2 °F - 19.4 °F 93% 29.99 in 7.0 mi Calm Calm - N/A   Scattered Clouds
8:07 AM 21.2 °F - 19.4 °F 93% 29.99 in 7.0 mi Calm Calm - N/A   Clear
8:27 AM 21.2 °F - 19.4 °F 93% 30.00 in 7.0 mi Calm Calm - N/A   Clear
8:47 AM 21.2 °F - 19.4 °F 93% 30.01 in 7.0 mi Calm Calm - N/A   Clear
9:07 AM 24.8 °F - 21.2 °F 86% 30.01 in 7.0 mi Calm Calm - N/A   Clear
9:27 AM 28.4 °F 24.6 °F 21.2 °F 74% 30.01 in 10.0 mi SW 3.5 mph - N/A   Clear
9:47 AM 28.4 °F 24.6 °F 21.2 °F 74% 30.01 in 10.0 mi WSW 3.5 mph - N/A   Clear
10:07 AM 30.2 °F 25.4 °F 23.0 °F 75% 30.01 in 10.0 mi WNW 4.6 mph - N/A   Clear
10:27 AM 28.4 °F - 23.0 °F 80% 30.01 in 10.0 mi Calm Calm - N/A   Scattered Clouds
10:48 AM 30.2 °F - 23.0 °F 75% 30.01 in 10.0 mi Calm Calm - N/A   Scattered Clouds
11:07 AM 32.0 °F 27.5 °F 23.0 °F 69% 30.01 in 10.0 mi NNW 4.6 mph - N/A   Clear
11:27 AM 32.0 °F 27.5 °F 23.0 °F 69% 30.01 in 10.0 mi NNW 4.6 mph - N/A   Clear
11:47 AM 32.0 °F 27.5 °F 23.0 °F 69% 30.00 in 10.0 mi NNW 4.6 mph - N/A   Clear
12:07 PM 33.8 °F 29.6 °F 24.8 °F 70% 30.00 in 10.0 mi NNW 4.6 mph - N/A   Clear
12:27 PM 33.8 °F 29.6 °F 24.8 °F 70% 30.00 in 10.0 mi North 4.6 mph - N/A   Clear
12:47 PM 33.8 °F 30.8 °F 24.8 °F 70% 30.00 in 10.0 mi NNW 3.5 mph - N/A   Clear
1:07 PM 35.6 °F - 24.8 °F 65% 29.99 in 10.0 mi Calm Calm - N/A   Clear
1:27 PM 35.6 °F 32.8 °F 24.8 °F 65% 29.99 in 10.0 mi NNW 3.5 mph - N/A   Clear
1:47 PM 35.6 °F 29.9 °F 23.0 °F 60% 29.99 in 10.0 mi NW 6.9 mph - N/A   Clear
2:07 PM 35.6 °F 29.9 °F 24.8 °F 65% 29.99 in 10.0 mi NW 6.9 mph - N/A   Clear
2:27 PM 35.6 °F 30.7 °F 24.8 °F 65% 29.99 in 10.0 mi NNW 5.8 mph - N/A   Clear
2:47 PM 35.6 °F 30.7 °F 24.8 °F 65% 30.00 in 10.0 mi North 5.8 mph - N/A   Clear
3:07 PM 35.6 °F 29.9 °F 23.0 °F 60% 30.01 in 10.0 mi NNW 6.9 mph - N/A   Clear
3:27 PM 35.6 °F 31.7 °F 23.0 °F 60% 30.01 in 10.0 mi NNW 4.6 mph - N/A   Clear
3:47 PM 33.8 °F 30.8 °F 23.0 °F 65% 30.02 in 10.0 mi NNW 3.5 mph - N/A   Clear
4:07 PM 32.0 °F 27.5 °F 23.0 °F 69% 30.03 in 10.0 mi North 4.6 mph - N/A   Clear
4:27 PM 32.0 °F 27.5 °F 23.0 °F 69% 30.04 in 10.0 mi North 4.6 mph - N/A   Clear
4:47 PM 30.2 °F 26.7 °F 23.0 °F 75% 30.05 in 10.0 mi North 3.5 mph - N/A   Clear
5:07 PM 30.2 °F 25.4 °F 23.0 °F 75% 30.06 in 10.0 mi North 4.6 mph - N/A   Scattered Clouds
5:27 PM 30.2 °F 25.4 °F 23.0 °F 75% 30.07 in 10.0 mi North 4.6 mph - N/A   Overcast
5:47 PM 32.0 °F 28.7 °F 23.0 °F 69% 30.08 in 10.0 mi NNW 3.5 mph - N/A   Overcast
6:07 PM 32.0 °F 26.4 °F 23.0 °F 69% 30.08 in 10.0 mi North 5.8 mph - N/A   Overcast
6:27 PM 32.0 °F 24.8 °F 23.0 °F 69% 30.08 in 10.0 mi North 8.1 mph - N/A   Overcast
6:47 PM 32.0 °F 24.2 °F 23.0 °F 69% 30.09 in 10.0 mi North 9.2 mph - N/A   Overcast
7:07 PM 32.0 °F 24.8 °F 23.0 °F 69% 30.09 in 10.0 mi NE 8.1 mph - N/A   Overcast
7:27 PM 32.0 °F 25.6 °F 23.0 °F 69% 30.10 in 10.0 mi NNE 6.9 mph - N/A   Overcast
7:47 PM 30.2 °F 25.4 °F 23.0 °F 75% 30.11 in 10.0 mi North 4.6 mph - N/A   Overcast
8:07 PM 30.2 °F 24.3 °F 23.0 °F 75% 30.11 in 10.0 mi North 5.8 mph - N/A   Overcast
8:27 PM 30.2 °F 23.4 °F 23.0 °F 75% 30.11 in 10.0 mi North 6.9 mph - N/A   Overcast
8:47 PM 30.2 °F 23.4 °F 23.0 °F 75% 30.11 in 10.0 mi North 6.9 mph - N/A   Overcast
9:07 PM 30.2 °F 23.4 °F 23.0 °F 75% 30.12 in 10.0 mi North 6.9 mph - N/A   Overcast
9:27 PM 30.2 °F 22.6 °F 21.2 °F 69% 30.12 in 10.0 mi North 8.1 mph - N/A   Overcast
9:47 PM 30.2 °F 24.3 °F 21.2 °F 69% 30.12 in 10.0 mi NNE 5.8 mph - N/A   Overcast
10:07 PM 30.2 °F 25.4 °F 21.2 °F 69% 30.12 in 10.0 mi NNE 4.6 mph - N/A   Overcast
10:27 PM 30.2 °F 23.4 °F 21.2 °F 69% 30.13 in 10.0 mi North 6.9 mph - N/A   Overcast
10:47 PM 30.2 °F 25.4 °F 21.2 °F 69% 30.13 in 10.0 mi North 4.6 mph - N/A   Overcast
11:07 PM 30.2 °F 23.4 °F 21.2 °F 69% 30.13 in 10.0 mi North 6.9 mph - N/A   Overcast
11:27 PM 30.2 °F 25.4 °F 21.2 °F 69% 30.14 in 10.0 mi NNE 4.6 mph - N/A   Overcast
11:47 PM 30.2 °F 24.3 °F 21.2 °F 69% 30.14 in 10.0 mi NNW 5.8 mph - N/A   Overcast